Regional Weather Roundup
Issued by NWS

Home | Current Version | Previous Version | Graphics & Text | Print | Product List | Glossary Off
Versions: 1 2 3 4 5 6 7 8 9 10 11 12 13 14 15 16 17 18 19 20 21 22 23 24 25 26 27 28 29 30 31 32 33 34 35 36 37 38 39 40 41 42 43 44 45 46 47 48 49 50

522
ASUS43 KTOP 130908
RWRKS

WEATHER ROUNDUP FOR KANSAS
NATIONAL WEATHER SERVICE GOODLAND KS
300 AM CST SAT FEB 13 2016

NOTE:  "FAIR" INDICATES FEW OR NO CLOUDS BELOW 12,000 FEET WITH NO
SIGNIFICANT WEATHER AND/OR OBSTRUCTIONS TO VISIBILITY.

KSZ001>006-013>018-027>032-041>047-131000-
NORTHWEST KANSAS

CITY           SKY/WX    TMP DP  RH WIND       PRES   REMARKS
GOODLAND       CLOUDY    26  24  92 S18       30.31F WCI  13
HAYS           CLOUDY    23  10  58 E9        30.46F
HILL CITY      CLOUDY    25  20  81 E10       30.45F WCI  15
RUSSELL        CLOUDY    21  16  81 E8        30.46F
$$

KSZ061>065-074>080-084>089-131000-
SOUTHWEST KANSAS

CITY           SKY/WX    TMP DP  RH WIND       PRES   REMARKS
DODGE CITY     CLOUDY    22  20  92 E8        30.40S
ELKHART          N/A     24  18  78 SE9         N/A
GARDEN CITY    CLOUDY    24  22  91 SE8       30.36F
GREAT BEND     CLOUDY    23  12  63 E8        30.47F
LIBERAL        CLOUDY    25  19  80 SE6       30.37S
PRATT          CLOUDY    22  17  81 E8        30.45F
$$

KSZ066>073-081>083-090>101-131000-
SOUTHEAST KANSAS

CITY           SKY/WX    TMP DP  RH WIND       PRES   REMARKS
CHANUTE        CLOUDY    27   7  42 NE12      30.55R WCI  17
COFFEYVILLE    CLOUDY    29  12  49 NE15      30.54S WCI  18
HUTCHINSON     CLOUDY    24  14  65 E8        30.51F
MEDICINE LODGE   N/A     24  20  84 NE6       30.46S
NEWTON         CLOUDY    23   9  54 E10       30.52S WCI  12
PARSONS        CLOUDY    29  11  47 NE9       30.55S
WICHITA INTL   CLOUDY    28  15  58 NE12      30.50S WCI  18
WICHITA JABRA  CLOUDY    24  12  60 NE7       30.51R
WICHITA MCCONL CLOUDY    27  14  57 E8        30.50S
WINFIELD       CLEAR     28  15  58 E7        30.51F
$$

KSZ007>012-019>026-033>040-048>060-102>105-131000-
NORTHEAST KANSAS

CITY           SKY/WX    TMP DP  RH WIND       PRES   REMARKS
CONCORDIA      CLOUDY    21  13  71 E9        30.53F
EMPORIA        CLOUDY    22   8  55 NE7       30.55R
LAWRENCE       CLOUDY    20   7  57 NE8       30.61S
MANHATTAN      CLOUDY    22   9  57 NE12      30.58S WCI  10
MARYSVILLE     CLOUDY    19   7  58 E8        30.57S
OLATHE IND     CLOUDY    19   6  57 N9        30.58F
OLATHE EXE     CLOUDY    18   1  47 NE8       30.58F
SALINA         CLOUDY    25  13  60 E9        30.54F
TOPEKA BILLARD CLOUDY    20   3  48 NE12      30.60F WCI   8
TOPEKA FORBES  CLOUDY    21   2  43 NE9       30.57F
$$




USA.gov is the U.S. government's official web portal to all federal, state and local government web resources and services.